Imperial, CA

4:36 PM PST on January 24, 2017 (GMT -0800)
Imperial County

Weather History for KIPL - October, 2012

Change the Weather History Date:

Monday, October 1, 2012

  Actual Average Record
Temperature  
Mean Temperature 90 °F -  
Max Temperature 108 °F 96 °F 110 °F (1980)
Min Temperature 72 °F 67 °F 56 °F (1971)
Cooling Degree Days 25    
Growing Degree Days 40 (Base 50)    
Moisture  
Dew Point 40 °F    
Average Humidity 21    
Maximum Humidity 38    
Minimum Humidity 7    
Precipitation  
Precipitation 0.00 in - - ()
Sea Level Pressure  
Sea Level Pressure 29.80 in    
Wind  
Wind Speed 5 mph (West)    
Max Wind Speed 8 mph    
Max Gust Speed -    
Visibility 10 miles    
Events      
Averages and records for this station are not official NWS values.
T = Trace of Precipitation, MM = Missing Value Source: NWS Daily Summary

Daily Weather History Graph

Daily Weather History Graph

Search for Another Location

Airport or City:

Trip Planner

Search our weather history database for the weather conditions in past years. The results will help you decide how hot, cold, wet, or windy it might be!

Date:

Astronomy

Oct. 01, 2012 Rise Set
Actual Time 6:36 AM PDT 6:26 PM PDT
Civil Twilight 6:12 AM PDT 6:50 PM PDT
Nautical Twilight 5:43 AM PDT 7:19 PM PDT
Astronomical Twilight 5:14 AM PDT 7:47 PM PDT
Moon 7:14 PM PDT (10/1) 8:02 AM PDT (10/1)
Length of Visible Light 12h 38m
Length of Day
11h 49m
Full, 97% of the Moon is Illuminated
Oct 1
Full
Oct 8
Last Quarter
Oct 15
New
Oct 21
First Quarter
Oct 29
Full

Hourly Weather History & Observations

Time (PDT) Temp. Dew Point Humidity Pressure Visibility Wind Dir Wind Speed Gust Speed Precip Events Conditions
12:53 AM 78.1 °F 43.0 °F 29% 29.80 in 10.0 mi West 5.8 mph - N/A   Clear
1:53 AM 75.9 °F 43.0 °F 31% 29.81 in 10.0 mi West 3.5 mph - N/A   Clear
2:53 AM 77.0 °F 44.1 °F 31% 29.80 in 10.0 mi West 8.1 mph - N/A   Clear
3:53 AM 73.9 °F 46.9 °F 38% 29.81 in 10.0 mi Calm Calm - N/A   Clear
4:53 AM 75.0 °F 43.0 °F 32% 29.81 in 10.0 mi WSW 4.6 mph - N/A   Clear
5:53 AM 73.9 °F 43.0 °F 33% 29.82 in 10.0 mi West 6.9 mph - N/A   Clear
6:53 AM 72.0 °F 42.1 °F 34% 29.84 in 10.0 mi WSW 6.9 mph - N/A   Clear
7:53 AM 79.0 °F 45.0 °F 30% 29.86 in 10.0 mi West 3.5 mph - N/A   Clear
8:53 AM 87.1 °F 44.1 °F 22% 29.87 in 10.0 mi West 4.6 mph - N/A   Clear
9:53 AM 93.0 °F 46.0 °F 20% 29.87 in 10.0 mi NW 4.6 mph - N/A   Clear
10:53 AM 99.0 °F 42.1 °F 14% 29.86 in 10.0 mi NW 3.5 mph - N/A   Clear
11:53 AM 104.0 °F 35.1 °F 9% 29.85 in 10.0 mi NNE 4.6 mph - N/A   Clear
12:53 PM 107.1 °F 33.1 °F 8% 29.83 in 10.0 mi Variable 3.5 mph - N/A   Clear
1:53 PM 108.0 °F 33.1 °F 8% 29.80 in 10.0 mi Variable 3.5 mph - N/A   Clear
2:53 PM 107.6 °F 33.8 °F 8% 29.77 in 10.0 mi West 5.8 mph - N/A   Partly Cloudy
3:53 PM 107.1 °F 30.9 °F 7% 29.76 in 10.0 mi West 4.6 mph - N/A   Scattered Clouds
4:53 PM 106.0 °F 32.0 °F 8% 29.74 in 10.0 mi WSW 5.8 mph - N/A   Scattered Clouds
5:53 PM 104.0 °F 35.1 °F 9% 29.74 in 10.0 mi SW 4.6 mph - N/A   Partly Cloudy
6:53 PM 96.1 °F 37.9 °F 13% 29.73 in 10.0 mi SW 5.8 mph - N/A   Clear
7:53 PM 91.9 °F 39.0 °F 16% 29.74 in 10.0 mi SW 3.5 mph - N/A   Clear
8:53 PM 87.8 °F 39.2 °F 18% 29.75 in 10.0 mi Calm Calm - N/A   Clear
9:53 PM 81.0 °F 48.0 °F 31% 29.76 in 10.0 mi SW 3.5 mph - N/A   Clear
10:53 PM 78.1 °F 46.9 °F 33% 29.76 in 10.0 mi WSW 4.6 mph - N/A   Clear
11:53 PM 79.0 °F 43.0 °F 28% 29.76 in 10.0 mi West 6.9 mph - N/A   Clear